[[[{"header":{"parameterUnit":"kt","parameterCategory":2,"dx":1,"dy":1,"la1":30.253999710083008,"la2":30.299108505249023,"lo1":-89.0895004272461,"lo2":-89.04439544677734,"nx":28,"ny":28,"refTime":"2022-11-01T21:00:00:Z","depth":0,"parameterNumber":1,"parameterNumberName":"U-component_of_WINDS"},"data":[-0.151,-0.143,-0.1387,-0.1276,-0.1218,-0.1135,-0.1092,-0.1032,-0.0973,-0.087,-0.0804,-0.0753,-0.0677,-0.0589,-0.0515,-0.0494,-0.0466,-0.0471,-0.0446,-0.0464,-0.0463,-0.0463,-0.0479,-0.0466,-0.0466,-0.0432,-0.0432,-0.0432,-0.1533,-0.1475,-0.1403,-0.1303,-0.1242,-0.1212,-0.1131,-0.1082,-0.1009,-0.0935,-0.0866,-0.0773,-0.0693,-0.0614,-0.0531,-0.0494,-0.0475,-0.0475,-0.0476,-0.0465,-0.0483,-0.05,-0.0491,-0.0491,-0.0491,-0.0492,-0.0492,-0.0492,-0.1562,-0.1516,-0.1429,-0.135,-0.1288,-0.1222,-0.117,-0.1107,-0.1036,-0.0941,-0.0903,-0.0819,-0.0737,-0.0614,-0.0562,-0.0496,-0.0489,-0.0474,-0.047,-0.0468,-0.0472,-0.0528,-0.048,-0.048,-0.048,-0.048,-0.048,0,-0.157,-0.1537,-0.1463,-0.1377,-0.1317,-0.1246,-0.1173,-0.114,-0.1053,-0.0998,-0.0915,-0.086,-0.0751,-0.0669,-0.058,-0.0527,-0.049,-0.0481,-0.0471,-0.0488,-0.0517,-0.0502,-0.0534,-0.0482,-0.0482,-0.0481,-0.0481,-0.0481,-0.1597,-0.1547,-0.1434,-0.1388,-0.1337,-0.1265,-0.1212,-0.1138,-0.1087,-0.0987,-0.0949,-0.0865,-0.0793,-0.0668,-0.0594,-0.0513,-0.0493,-0.0479,-0.0481,-0.0501,-0.0494,-0.0497,-0.0493,-0.048,-0.048,-0.048,-0.048,0,-0.1617,-0.1543,-0.145,-0.1342,-0.1313,-0.1265,-0.1173,-0.1123,-0.1065,-0.0988,-0.0966,-0.0876,-0.0796,-0.0722,-0.0616,-0.058,-0.0503,-0.0486,-0.0532,-0.0524,-0.0504,-0.0507,-0.0449,-0.0438,-0.045,-0.045,-0.045,0,-0.1611,-0.1547,-0.144,-0.139,-0.1318,-0.1243,-0.1174,-0.1117,-0.1042,-0.0981,-0.0925,-0.0869,-0.0783,-0.0718,-0.0665,-0.0588,-0.0567,-0.0536,-0.0522,-0.054,-0.0544,-0.0511,-0.0512,-0.0493,-0.0493,-0.0493,-0.0494,0,-0.165,-0.1516,-0.1434,-0.1392,-0.1268,-0.1232,-0.1179,-0.1094,-0.1043,-0.0965,-0.0931,-0.0846,-0.08,-0.0736,-0.0668,-0.0673,-0.0572,-0.0564,-0.054,-0.0542,-0.052,-0.0522,-0.049,-0.0494,-0.0494,-0.0494,-0.0494,0,-0.1632,-0.1553,-0.1445,-0.1341,-0.1309,-0.1255,-0.1165,-0.1101,-0.1015,-0.0977,-0.0915,-0.0868,-0.0793,-0.0791,-0.0688,-0.0713,-0.0671,-0.0633,-0.063,-0.0618,-0.0617,-0.0609,-0.0585,-0.058,-0.061,-0.061,-0.0611,0,-0.1698,-0.1567,-0.1501,-0.1399,-0.1328,-0.1269,-0.1208,-0.1132,-0.1076,-0.1009,-0.0948,-0.0871,-0.0853,-0.0818,-0.0777,-0.071,-0.0678,-0.0712,-0.0618,-0.0616,-0.0643,-0.0621,-0.0636,-0.0599,-0.0622,-0.0621,-0.062,0,-0.1739,-0.1586,-0.1573,-0.1521,-0.1407,-0.1346,-0.1276,-0.1182,-0.1141,-0.1061,-0.1,-0.089,-0.0872,-0.0815,-0.0766,-0.0727,-0.0698,-0.0713,-0.0709,-0.0714,-0.0621,-0.0636,-0.063,-0.0675,-0.0673,-0.0672,-0.0629,0,-0.1732,-0.1655,-0.1614,-0.1499,-0.144,-0.1371,-0.1289,-0.1238,-0.1198,-0.1139,-0.1047,-0.0963,-0.0867,-0.084,-0.0799,-0.0732,-0.0731,-0.0712,-0.0703,-0.0689,-0.0673,-0.0666,-0.0734,-0.0733,-0.0733,-0.0732,0,0,-0.1813,-0.17,-0.1627,-0.1554,-0.15,-0.1437,-0.1371,-0.1311,-0.119,-0.1154,-0.1149,-0.098,-0.0911,-0.0809,-0.0798,-0.0758,-0.0739,-0.0746,-0.0696,-0.0693,-0.0689,-0.0673,-0.0667,-0.0731,-0.0731,-0.0731,-0.073,0,-0.1793,-0.1723,-0.1657,-0.1591,-0.149,-0.143,-0.1415,-0.1303,-0.1262,-0.117,-0.1119,-0.1054,-0.0919,-0.0854,-0.0803,-0.0757,-0.0722,-0.0734,-0.0737,-0.0693,-0.069,-0.0687,-0.0672,-0.0667,-0.0729,-0.0729,-0.0729,0,-0.1818,-0.1736,-0.1695,-0.1566,-0.1499,-0.1426,-0.1397,-0.132,-0.1266,-0.1199,-0.1108,-0.105,-0.0955,-0.0867,-0.0825,-0.0818,-0.0711,-0.0729,-0.0731,-0.0724,-0.0676,-0.0673,-0.067,-0.0709,-0.0709,-0.0709,0,0,-0.1812,-0.1739,-0.1626,-0.1555,-0.1517,-0.1425,-0.1377,-0.133,-0.1245,-0.1211,-0.1134,-0.1054,-0.0975,-0.0924,-0.0846,-0.0761,-0.0735,-0.073,-0.0731,-0.0732,-0.0726,-0.0679,-0.0676,-0.071,-0.071,-0.071,0,0,-0.1809,-0.1674,-0.1647,-0.1554,-0.1475,-0.1358,-0.1318,-0.1282,-0.1202,-0.1201,-0.1118,-0.1092,-0.1008,-0.0952,-0.0976,-0.0841,-0.0834,-0.0826,-0.088,-0.088,-0.0881,-0.0896,-0.0933,0,0,0,0,0,-0.1744,-0.1691,-0.1668,-0.164,-0.1475,-0.1372,-0.135,-0.128,-0.1277,-0.1247,-0.1178,-0.1142,-0.0949,-0.0968,-0.0941,-0.0915,-0.0724,-0.0721,-0.0719,-0.0768,-0.0769,-0.077,0,0,0,0,0,0,-0.1732,-0.1698,-0.1669,-0.1551,-0.1513,-0.1373,-0.1352,-0.1331,-0.1278,-0.1273,-0.1157,-0.1138,-0.1077,-0.0976,-0.0954,-0.093,-0.094,-0.0723,-0.0721,-0.0719,-0.0768,-0.0769,-0.077,0,0,0,0,0,-0.1723,-0.1695,-0.1449,-0.1551,-0.1518,-0.1413,-0.1354,-0.1336,-0.1293,-0.1184,-0.1165,-0.1245,-0.1078,-0.1054,-0.0962,-0.0942,-0.0956,-0.0948,-0.0721,-0.072,-0.0718,-0.0769,0,0,0,0,0,0,-0.1715,-0.1678,-0.144,-0.1428,-0.1565,-0.1419,-0.1394,-0.134,-0.1207,-0.1187,-0.1269,-0.1266,-0.1078,-0.1059,-0.1041,-0.0951,-0.0968,-0.096,-0.0955,-0.072,-0.0719,-0.0718,0,0,0,0,0,0,-0.1693,-0.1668,-0.1434,-0.1455,-0.1445,-0.1425,-0.1403,-0.1314,-0.1206,-0.1299,-0.1292,-0.1269,-0.1105,-0.1063,-0.1049,-0.0913,-0.0978,-0.097,-0.0964,-0.0961,-0.0719,-0.0718,0,0,0,0,0,0,-0.1681,-0.166,-0.1458,-0.145,-0.1441,-0.1294,-0.1346,-0.1181,-0.1225,-0.1306,-0.1227,-0.1228,-0.111,-0.1094,-0.1054,-0.0925,-0.0916,-0.0977,-0.0972,-0.0968,-0.0966,0,0,0,0,0,0,0,-0.1672,-0.183,-0.1515,-0.1445,-0.1437,-0.1312,-0.1308,-0.1305,-0.1225,-0.1226,-0.1226,-0.1227,-0.1023,-0.1015,-0.1006,-0.0935,0,0,-0.0978,-0.0974,0,0,0,0,0,0,0,0,-0.1837,-0.1831,-0.1515,-0.1512,-0.151,-0.1311,-0.1308,-0.1306,-0.1225,-0.1226,-0.1226,-0.1227,-0.1021,-0.1014,-0.1007,0,0,0,0,0,0,0,0,0,0,0,0,0,0,0,-0.1514,-0.1512,0,-0.1311,-0.1308,-0.1306,-0.1225,-0.1226,-0.1226,-0.1227,-0.1019,-0.1013,-0.1007,0,0,0,0,0,0,0,0,0,0,0,0,0,0,0,0,0,0,0,0,0,0,0,0,0,0,0,0,0,0,0,0,0,0,0,0,0,0,0,0,0,0,0,0,0,0,0,0,0,0,0,0,0,0,0,0,0,0,0,0,0,0,0,0,0,0,0,0,0]}],[{"header":{"parameterUnit":"kt","parameterCategory":2,"dx":1,"dy":1,"la1":30.253999710083008,"la2":30.299108505249023,"lo1":-89.0895004272461,"lo2":-89.04439544677734,"nx":28,"ny":28,"refTime":"2022-11-01T21:00:00:Z","depth":0,"parameterNumber":2,"parameterNumberName":"V-component_of_WINDS"},"data":[0.303,0.3042,0.3026,0.3031,0.3017,0.3016,0.301,0.3,0.2988,0.2984,0.2978,0.2962,0.2941,0.2928,0.2919,0.2911,0.2907,0.2922,0.291,0.2858,0.285,0.2842,0.2837,0.2923,0.2923,0.2964,0.2964,0.2964,0.2989,0.2975,0.2975,0.2962,0.296,0.2934,0.2922,0.2921,0.2921,0.2907,0.2901,0.2895,0.2889,0.2862,0.2852,0.2854,0.2839,0.2852,0.2849,0.2845,0.2791,0.2786,0.2863,0.2863,0.2863,0.2863,0.2863,0.2863,0.2908,0.2917,0.29,0.2899,0.2888,0.2879,0.2884,0.2864,0.2862,0.2852,0.2832,0.2831,0.2813,0.2792,0.2781,0.2778,0.2761,0.2768,0.2769,0.277,0.2772,0.2708,0.2776,0.2776,0.2775,0.2775,0.2775,0,0.2843,0.2828,0.2827,0.2821,0.2819,0.2812,0.2803,0.2806,0.2769,0.2769,0.2766,0.2761,0.2752,0.2746,0.2733,0.2719,0.269,0.2687,0.269,0.2697,0.2704,0.2695,0.2602,0.2684,0.2683,0.2683,0.2682,0.2682,0.2755,0.277,0.2745,0.2746,0.2738,0.2741,0.2738,0.2706,0.2704,0.2687,0.2696,0.2691,0.2685,0.2683,0.2658,0.265,0.2635,0.2667,0.2633,0.2639,0.2629,0.2627,0.2626,0.2673,0.2674,0.2675,0.2676,0,0.2706,0.2681,0.2698,0.2672,0.2666,0.2682,0.2658,0.2666,0.2647,0.2653,0.2653,0.2622,0.2619,0.2589,0.2582,0.2565,0.2584,0.2572,0.2588,0.2582,0.2605,0.2601,0.2692,0.2699,0.2615,0.2616,0.2616,0,0.2619,0.264,0.2599,0.2611,0.2631,0.2598,0.2619,0.2604,0.259,0.2595,0.2559,0.2565,0.2526,0.2526,0.2503,0.2514,0.2514,0.25,0.2492,0.2501,0.2502,0.2496,0.249,0.2482,0.2482,0.2481,0.2481,0,0.2542,0.2547,0.2566,0.2563,0.2538,0.2547,0.2537,0.2521,0.252,0.2513,0.2511,0.2507,0.2503,0.2498,0.2468,0.2445,0.2482,0.2445,0.2467,0.2468,0.2474,0.2474,0.2564,0.248,0.248,0.248,0.248,0,0.2466,0.2463,0.2497,0.2473,0.2476,0.249,0.2482,0.2488,0.2473,0.246,0.2455,0.2426,0.2438,0.2402,0.2415,0.2394,0.2391,0.238,0.2381,0.2377,0.2337,0.2386,0.248,0.2486,0.2376,0.2375,0.2375,0,0.2381,0.241,0.2381,0.2415,0.2423,0.2381,0.2395,0.2385,0.2368,0.2371,0.2352,0.2357,0.2325,0.2321,0.2333,0.2312,0.234,0.2308,0.2306,0.2306,0.2306,0.2393,0.2412,0.2464,0.2364,0.2365,0.2366,0,0.2311,0.2284,0.2292,0.2285,0.2269,0.2277,0.2295,0.2293,0.2296,0.2291,0.2301,0.231,0.2284,0.2281,0.2258,0.2271,0.232,0.2241,0.224,0.2252,0.2358,0.2375,0.2384,0.2301,0.2302,0.2303,0.2357,0,0.2192,0.2205,0.2228,0.222,0.2222,0.2244,0.2214,0.222,0.2197,0.2179,0.2198,0.2184,0.2181,0.2186,0.2166,0.2207,0.2194,0.2168,0.2128,0.2187,0.2203,0.2211,0.2105,0.2104,0.2103,0.2102,0,0,0.2114,0.2132,0.2103,0.212,0.2119,0.2076,0.2101,0.2096,0.2087,0.2086,0.2065,0.2075,0.2065,0.209,0.2106,0.2108,0.211,0.2092,0.216,0.2167,0.2173,0.2191,0.22,0.21,0.21,0.2099,0.2099,0,0.2063,0.2058,0.2085,0.2079,0.2068,0.2049,0.2056,0.2037,0.2027,0.2048,0.201,0.2018,0.203,0.2021,0.2019,0.2089,0.2058,0.2092,0.2137,0.2151,0.2159,0.2166,0.2185,0.2194,0.2096,0.2096,0.2097,0,0.1985,0.1973,0.1984,0.1986,0.1979,0.1991,0.1942,0.1959,0.1966,0.1918,0.1938,0.1927,0.1915,0.1946,0.1959,0.1939,0.2012,0.1987,0.1993,0.1992,0.2004,0.2014,0.2023,0.1905,0.1905,0.1904,0,0,0.1945,0.1959,0.1936,0.1973,0.1971,0.1944,0.1948,0.1926,0.1918,0.1915,0.19,0.1892,0.1897,0.1902,0.1906,0.1945,0.1937,0.1964,0.1973,0.1981,0.1984,0.1998,0.2008,0.1902,0.1902,0.1902,0,0,0.1925,0.19,0.1879,0.1919,0.1913,0.1892,0.1915,0.1888,0.189,0.1883,0.1847,0.1843,0.1872,0.1863,0.1838,0.189,0.1852,0.1858,0.1895,0.1906,0.1915,0.1915,0.1785,0,0,0,0,0,0.1859,0.1903,0.1884,0.1887,0.189,0.1903,0.1902,0.1874,0.1846,0.1864,0.1846,0.1815,0.1841,0.1818,0.182,0.1847,0.1876,0.188,0.1885,0.1942,0.1954,0.1964,0,0,0,0,0,0,0.1859,0.1863,0.1883,0.1864,0.1865,0.1901,0.1847,0.184,0.1843,0.1837,0.182,0.1815,0.179,0.1815,0.1817,0.1843,0.1784,0.1877,0.1881,0.1885,0.1946,0.1956,0.1964,0,0,0,0,0,0.186,0.1862,0.1875,0.1863,0.1864,0.1836,0.1845,0.1839,0.1841,0.1814,0.1809,0.1819,0.1792,0.1792,0.1816,0.1843,0.1782,0.1783,0.188,0.1883,0.1886,0.1951,0,0,0,0,0,0,0.186,0.1856,0.1874,0.1873,0.1845,0.1833,0.183,0.1838,0.1817,0.1812,0.1811,0.1806,0.1793,0.1793,0.1793,0.1844,0.178,0.1781,0.1782,0.1882,0.1885,0.1887,0,0,0,0,0,0,0.1855,0.1856,0.1874,0.1852,0.1848,0.1831,0.1828,0.1846,0.1818,0.1815,0.181,0.1809,0.1792,0.1794,0.1794,0.1823,0.1779,0.178,0.1781,0.1781,0.1884,0.1886,0,0,0,0,0,0,0.1854,0.1855,0.1852,0.185,0.1846,0.1831,0.1846,0.185,0.1801,0.1817,0.1795,0.1793,0.1795,0.1794,0.1795,0.1824,0.1823,0.1779,0.178,0.178,0.1781,0,0,0,0,0,0,0,0.1854,0.1856,0.1881,0.1847,0.1844,0.1863,0.1863,0.1863,0.18,0.1798,0.1796,0.1794,0.1773,0.1775,0.1776,0.1825,0,0,0.1779,0.178,0,0,0,0,0,0,0,0,0.1855,0.1855,0.1881,0.1881,0.1881,0.1863,0.1863,0.1863,0.18,0.1798,0.1796,0.1795,0.1774,0.1775,0.1776,0,0,0,0,0,0,0,0,0,0,0,0,0,0,0,0.1881,0.1881,0,0.1863,0.1863,0.1863,0.1799,0.1798,0.1797,0.1795,0.1774,0.1775,0.1775,0,0,0,0,0,0,0,0,0,0,0,0,0,0,0,0,0,0,0,0,0,0,0,0,0,0,0,0,0,0,0,0,0,0,0,0,0,0,0,0,0,0,0,0,0,0,0,0,0,0,0,0,0,0,0,0,0,0,0,0,0,0,0,0,0,0,0,0,0]}]]]